Weather in Behbahan

Iran     30°35′37″N   50°14′18″E
temp.,
°C
wind,
m/s
gust,
m/s
humid.,
%
clouds,
%
prec.,
mm/h
press.,
hPa
HPBL,
m
24 january, mon
mon2400:30+9e11420 0.0 101910
03:30+9nnw11410 0.0 101810
06:30+8ne11380 0.0 101810
09:30+14ene01220 0.0 102079
12:30+17w11195 0.0 1018497
15:30+19wnw332163 0.0 1017600
18:30+16n223419 0.0 101811
21:30+16w113793 0.0 101812
25 january, tue
tue2500:30+14wnw114596 0.0 101911
03:30+13nw224721 0.0 101811
06:30+12n11575 0.0 101810
09:30+17n11430 0.0 1019146
12:30+20wnw22385 0.0 1018670
15:30+20wnw54400 0.0 1016792
18:30+16wnw33470 0.0 101731
21:30+15nnw22530 0.0 101912
26 january, wed
wed2600:30+14nne11570 0.0 101811
03:30+13ne11610 0.0 101711
06:30+12ene11610 0.0 101711
09:30+17e12440 0.0 1018135
12:30+21sse23320 0.0 1016680
15:30+21s443472 0.0 1015661
18:30+17s225370 0.0 101511
21:30+17sse235489 0.0 101636
27 january, thu
thu2700:30+16ese445366 0.0 101545
03:30+16se234570 0.0 101412
06:30+15ese4447100 0.0 101442
09:30+17se3747100 0.0 1016217
12:30+18s7958100 0.1 10161033
15:30+14nw8868100 1.8 1016594
18:30+12nw6114656 0.0 1018281
21:30+11nw510485 0.0 1020228
28 january, fri
fri2800:30+9nw495388 0.0 1021167
03:30+8nw485532 0.0 1021142
06:30+7nnw34580 0.0 102252
09:30+10nw45450 0.0 1023310
12:30+14nw66320 0.0 1022870
15:30+14nw77300 0.0 1020965
18:30+11nw6103911 0.0 1021239
21:30+9nw4945100 0.0 1022184